Cozumel, Mexico

11:42 AM EST on April 29, 2017 (GMT -0500)
Cozumel

Weather History for MMCZ - September, 2013

Change the Weather History Date:

Thursday, September 26, 2013

  Actual Average Record
Temperature  
Mean Temperature 77 °F -  
Max Temperature 86 °F 86 °F 91 °F (1996)
Min Temperature 68 °F 75 °F 68 °F (2012)
Cooling Degree Days 12    
Growing Degree Days 27 (Base 50)    
Moisture  
Dew Point 72 °F    
Average Humidity 90    
Maximum Humidity 100    
Minimum Humidity 62    
Precipitation  
Precipitation 0.00 in - - ()
Sea Level Pressure  
Sea Level Pressure 29.89 in    
Wind  
Wind Speed 2 mph ()    
Max Wind Speed 8 mph    
Max Gust Speed -    
Visibility 7.5 miles    
Events      
Averages and records for this station are not official NWS values.
T = Trace of Precipitation, MM = Missing Value Source: Averaged Metar Reports

Daily Weather History Graph

Daily Weather History Graph

Search for Another Location

Airport or City:

Trip Planner

Search our weather history database for the weather conditions in past years. The results will help you decide how hot, cold, wet, or windy it might be!

Date:

Astronomy

Sep. 26, 2013 Rise Set
Actual Time 6:37 AM CDT 6:39 PM CDT
Civil Twilight 6:15 AM CDT 7:02 PM CDT
Nautical Twilight 5:49 AM CDT 7:27 PM CDT
Astronomical Twilight 5:24 AM CDT 7:53 PM CDT
Moon No Moon Rise 12:51 PM CDT (9/26)
Length of Visible Light 12h 46m
Length of Day
12h 02m
Waning Gibbous, 54% of the Moon is Illuminated
Sep 26
Waning Gibbous
Sep 26
Last Quarter
Oct 4
New
Oct 11
First Quarter
Oct 18
Full

Hourly Weather History & Observations

Time (CDT) Temp. Heat Index Dew Point Humidity Pressure Visibility Wind Dir Wind Speed Gust Speed Precip Events Conditions
12:40 AM 71.6 °F - 69.8 °F 94% 29.90 in 7.0 mi SE 3.5 mph - N/A   Partly Cloudy
1:42 AM 71.6 °F - 69.8 °F 94% 29.88 in 7.0 mi Calm Calm - N/A   Partly Cloudy
2:40 AM 69.8 °F - 68.0 °F 94% 29.87 in 7.0 mi Calm Calm - N/A   Partly Cloudy
3:40 AM 68.0 °F - 68.0 °F 100% 29.88 in 7.0 mi Calm Calm - N/A   Partly Cloudy
4:40 AM 68.0 °F - 68.0 °F 100% 29.85 in 7.0 mi Calm Calm - N/A   Partly Cloudy
5:40 AM 68.0 °F - 68.0 °F 100% 29.87 in 7.0 mi Calm Calm - N/A   Partly Cloudy
6:40 AM 68.0 °F - 68.0 °F 100% 29.86 in 7.0 mi Calm Calm - N/A   Scattered Clouds
7:40 AM 69.8 °F - 69.8 °F 100% 29.90 in 8.0 mi Calm Calm - N/A   Mostly Cloudy
8:44 AM 75.2 °F - 73.4 °F 94% 29.91 in 8.0 mi SSE 4.6 mph - N/A   Scattered Clouds
9:40 AM 80.6 °F 86.2 °F 75.2 °F 84% 29.95 in 8.0 mi SE 5.8 mph - N/A   Scattered Clouds
10:41 AM 82.4 °F 89.5 °F 75.2 °F 79% 29.92 in 8.0 mi SSE 5.8 mph - N/A   Scattered Clouds
11:42 AM 84.2 °F 90.9 °F 73.4 °F 70% 29.91 in 8.0 mi Calm Calm - N/A   Scattered Clouds
12:42 PM 86.0 °F 91.8 °F 71.6 °F 62% 29.88 in 8.0 mi North 5.8 mph - N/A   Scattered Clouds
1:42 PM 84.2 °F 92.3 °F 75.2 °F 74% 29.87 in 8.0 mi NW 6.9 mph - N/A   Scattered Clouds
2:40 PM 84.2 °F 92.3 °F 75.2 °F 74% 29.86 in 8.0 mi NW 8.1 mph - N/A   Scattered Clouds
3:50 PM 80.6 °F 86.2 °F 75.2 °F 84% 29.88 in 8.0 mi Calm Calm - N/A   Scattered Clouds
4:54 PM 80.6 °F 85.4 °F 73.4 °F 79% 29.86 in 8.0 mi SE 5.8 mph - N/A   Scattered Clouds
5:40 PM 80.6 °F 85.4 °F 73.4 °F 79% 29.87 in 8.0 mi SE 8.1 mph - N/A   Scattered Clouds
6:51 PM 75.2 °F - 73.4 °F 94% 29.87 in 8.0 mi Calm Calm - N/A   Scattered Clouds
7:41 PM 73.4 °F - 73.4 °F 100% 29.90 in 7.0 mi Calm Calm - N/A   Partly Cloudy
8:41 PM 73.4 °F - 73.4 °F 100% 29.92 in 7.0 mi Calm Calm - N/A   Partly Cloudy
9:43 PM 71.6 °F - 71.6 °F 100% 29.97 in 7.0 mi Calm Calm - N/A   Partly Cloudy
10:44 PM 71.6 °F - 71.6 °F 100% 29.94 in 7.0 mi Calm Calm - N/A   Partly Cloudy
11:40 PM 69.8 °F - 69.8 °F 100% 29.93 in 7.0 mi Calm Calm - N/A   Partly Cloudy